sat.trackr.live / text

‹ back to catalog

STARLINK-4467

NORAD 53686 · 2022-105AQ

PAYLOAD ACTIVE UNKNOWN

§ Identity

Operator
Country
US
Launch date
2022-08-31
Launch site
AFWTR
Launch vehicle
Mass (kg)
RCS (m²)

Purposes: comms

External: N2YO · Heavens-Above · Gunter

§ Orbital elements

Epoch: 2026-09-20T21:44:48.465600Z

Period
95.64 min
Inclination
97.2840°
Eccentricity
0.0002615
Mean motion
15.05654867 rev/d
Perigee alt
547.7 km
Apogee alt
551.3 km
Semi-major
6,927.6 km
B*
2.2502e-5
RAAN
137.6187°
Arg perigee
81.3538°
Mean anomaly
278.7986°
Rev number
22,260

§ Raw data

STARLINK-44671 53686U 22105AQ  26263.90611650  .00000268  00000+0  22502-4 0  99952 53686  97.2840 137.6187 0002615  81.3538 278.7986 15.05654867222601

JSON: /api/v1/satellites/53686 · /tle

For live sub-satellite position, see the globe view (requires WebGL).

§ Visibility from observer

Set your observer location to see the next 7 days of passes ≥ 10°. The values pass through the URL so the page stays shareable.

No JS? Fill the form by hand. The geolocation button needs JavaScript.